Probability
0 0 0 0 0 0 0 0 0 0 0 0 0 0 3 29 90 94 29 48 97 94 100 100 100 100 100 100 100 100 100 100 100 100 100 100 100 100 100 100 100 100 100 100 100 100 97 94 77
0 0 0 0 0 0 0 0 0 0 0 0 0 0 6 16 74 71 48 77 97 100 100 100 100 100 100 100 100 100 100 100 100 100 100 100 100 100 100 100 94 94 97 97 100 97 90 77 52
0 0 0 0 0 0 0 0 0 0 0 0 0 0 3 10 71 97 90 84 97 100 100 100 100 100 100 100 100 100 100 100 100 100 100 100 100 100 97 97 90 90 94 94 94 87 77 48 19
0 0 0 0 0 0 0 0 0 0 0 0 0 0 3 3 84 97 87 84 100 100 100 100 100 100 100 100 100 100 100 100 100 100 100 100 100 97 97 97 90 84 84 84 77 61 45 19 6
0 0 0 0 0 0 0 0 0 0 0 0 0 10 13 58 100 94 94 90 100 100 100 100 100 100 100 100 100 100 100 100 100 100 100 100 100 97 94 84 74 71 74 81 55 45 19 3 0
0 0 0 0 0 0 0 0 0 0 0 0 0 6 35 71 97 94 97 97 100 100 100 100 100 100 100 100 100 100 100 100 100 100 100 100 100 100 97 94 74 68 74 55 42 16 6 3 0
0 0 0 0 0 0 0 0 0 0 0 0 0 0 39 55 87 87 87 97 100 100 100 100 100 100 100 100 100 100 100 100 100 100 100 100 100 100 97 90 74 61 48 32 23 16 6 3 0
0 0 0 0 0 0 0 0 0 0 0 0 0 0 45 58 71 55 71 87 100 100 100 100 100 100 100 100 100 100 100 100 100 100 100 100 100 100 100 100 87 65 42 29 23 6 0 0 0
0 0 0 0 0 0 0 0 0 0 0 0 0 3 52 55 48 58 61 87 97 100 100 100 100 100 100 100 100 100 100 100 100 100 100 100 97 97 100 97 90 77 48 19 16 6 3 3 3
0 0 0 0 0 0 0 0 0 0 0 0 10 32 42 42 45 55 61 84 100 100 100 100 100 100 100 100 100 100 100 100 100 100 100 100 100 100 100 94 94 68 45 26 13 16 13 3 0
0 0 0 0 0 0 0 0 0 0 0 0 3 29 39 42 48 39 58 94 100 100 100 97 94 100 100 100 100 100 100 100 100 100 100 100 100 100 87 71 81 71 45 19 10 10 0 0 0
0 0 0 0 0 0 0 0 0 0 0 0 0 19 35 39 35 35 45 74 100 100 100 81 87 100 100 100 100 100 100 100 100 100 100 100 100 100 97 94 61 74 52 45 10 42 0 0 0
0 0 0 0 0 0 0 0 0 0 0 0 0 13 19 29 19 35 45 81 100 100 100 94 97 100 100 100 100 100 100 100 100 100 100 100 100 100 97 97 97 84 48 52 68 42 23 10 3
0 0 0 0 0 0 0 0 0 0 0 0 0 6 13 19 16 26 52 90 100 100 100 100 100 100 100 100 100 100 100 100 100 100 100 94 100 100 100 100 94 87 71 52 55 35 29 32 35
0 0 0 0 0 0 0 0 0 0 0 0 0 3 16 26 19 32 55 97 97 100 100 100 100 100 100 100 100 100 100 100 100 100 100 97 100 97 87 94 77 58 52 35 39 26 29 26 13
0 0 0 0 0 0 0 0 0 0 0 0 0 3 6 42 26 26 61 97 97 100 100 100 100 100 100 100 100 100 100 100 100 100 100 94 84 61 71 74 45 32 19 19 26 23 10 10 0
0 0 0 0 0 0 0 0 0 0 0 0 0 3 3 23 16 23 65 97 97 100 100 100 100 100 100 100 100 100 100 100 97 94 94 74 48 23 48 42 32 19 19 10 0 10 0 0 0
0 0 0 0 0 0 0 0 0 0 0 0 0 0 0 6 29 39 81 97 97 97 100 100 100 100 100 100 100 97 94 90 87 74 74 52 26 6 23 19 10 3 3 3 0 0 0 0 0
0 0 0 0 0 0 0 0 0 0 0 0 0 0 0 3 19 48 87 94 94 97 97 100 100 100 100 100 97 90 87 74 61 39 26 16 6 6 3 3 0 0 0 0 0 0 0 0 0
0 0 0 0 0 0 0 0 0 0 0 0 0 0 0 6 35 84 97 94 90 90 97 100 100 100 100 100 94 90 77 39 16 10 6 0 0 0 0 0 0 0 0 0 0 0 0 0 0
0 0 0 0 0 0 0 0 0 0 0 0 0 0 0 3 29 77 94 94 97 100 100 100 100 100 97 90 74 35 16 0 0 0 0 0 0 0 0 0 0 0 0 0 0 0 0 0 0
0 0 0 0 0 0 0 0 0 0 0 0 0 0 0 6 26 55 90 100 100 100 100 97 94 87 81 65 39 16 0 0 0 0 0 0 0 0 0 0 0 0 0 0 0 0 0 0 0
0 0 0 0 0 0 0 0 0 0 0 0 0 0 0 10 29 71 90 100 94 87 81 68 61 48 39 35 29 13 3 0 0 0 0 0 0 0 0 0 0 0 0 0 0 0 0 0 0
0 0 0 0 0 0 0 0 0 0 0 0 0 0 6 26 52 87 97 87 77 58 45 42 26 19 13 10 10 3 0 0 0 0 0 0 0 0 0 0 0 0 0 0 0 0 0 0 0
0 0 0 0 0 0 0 0 0 0 0 0 0 10 23 52 74 87 81 68 45 35 26 16 10 3 3 3 3 0 0 0 0 0 0 0 0 0 0 0 0 0 0 0 0 0 0 0 0
0 0 0 0 0 0 0 0 0 0 0 0 0 13 29 68 77 77 68 42 32 23 13 3 3 3 3 0 0 0 0 0 0 0 0 0 0 0 0 0 0 0 0 0 0 0 0 0 0
0 0 0 0 0 0 0 0 0 0 0 0 0 10 26 68 81 68 42 19 16 10 3 3 3 0 0 0 0 0 0 0 0 0 0 0 0 0 0 0 0 0 0 0 0 0 0 0 0
0 0 0 0 0 0 0 0 0 0 0 0 0 10 55 77 77 48 19 13 10 3 3 0 0 0 0 0 0 0 0 0 0 0 0 0 0 0 0 0 0 0 0 0 0 0 0 0 0
0 0 0 0 0 0 0 0 0 0 0 0 0 10 74 87 52 29 13 6 3 0 0 0 0 0 0 0 0 0 0 0 0 0 0 0 0 0 0 0 0 0 0 0 0 0 0 0 0
0 0 0 0 0 0 0 0 0 0 0 0 6 55 87 77 39 16 3 3 0 0 0 0 0 0 0 0 0 0 0 0 0 0 0 0 0 0 0 0 0 0 0 0 0 0 0 0 0
Height
5884 5886 5889 5893 5897 5899 5899 5903 5903 5898 5896 5896 5896 5894 5890 5891 5892 5893 5889 5887 5889 5888 5888 5888 5887 5887 5887 5887 5887 5887 5887 5888 5888 5889 5890 5890 5891 5891 5891 5891 5891 5891 5891 5892 5892 5892 5893 5893 5893
5882 5885 5889 5892 5895 5896 5899 5903 5897 5897 5895 5894 5894 5892 5889 5890 5889 5889 5887 5887 5888 5887 5887 5887 5886 5886 5886 5885 5885 5885 5885 5886 5886 5887 5887 5888 5888 5888 5888 5888 5888 5888 5889 5889 5889 5889 5890 5890 5890
5881 5883 5887 5891 5893 5894 5897 5898 5894 5896 5894 5893 5891 5890 5889 5889 5888 5887 5886 5886 5887 5886 5886 5886 5885 5885 5884 5884 5884 5884 5884 5884 5884 5884 5884 5885 5885 5885 5885 5885 5885 5885 5886 5886 5886 5886 5886 5887 5887
5880 5883 5887 5891 5892 5895 5895 5894 5894 5894 5894 5893 5890 5887 5887 5887 5887 5886 5885 5885 5886 5886 5885 5885 5885 5884 5884 5883 5883 5883 5883 5883 5883 5882 5882 5882 5882 5882 5883 5883 5883 5883 5883 5883 5883 5883 5883 5883 5883
5880 5883 5886 5889 5892 5898 5898 5894 5895 5894 5893 5892 5889 5886 5886 5886 5886 5885 5885 5885 5885 5884 5884 5884 5883 5883 5883 5882 5882 5881 5881 5881 5881 5880 5880 5880 5880 5880 5880 5880 5880 5880 5880 5880 5880 5880 5880 5880 5880
5879 5883 5886 5889 5895 5900 5899 5896 5895 5893 5892 5891 5888 5885 5886 5886 5886 5885 5885 5884 5884 5884 5883 5882 5882 5881 5881 5881 5880 5880 5879 5879 5879 5878 5878 5878 5877 5877 5877 5877 5877 5877 5877 5877 5876 5876 5876 5876 5876
5879 5880 5882 5888 5893 5899 5899 5896 5893 5892 5891 5890 5889 5885 5886 5886 5886 5885 5884 5884 5884 5883 5882 5881 5881 5880 5879 5879 5878 5878 5877 5877 5876 5876 5875 5875 5874 5874 5874 5874 5874 5873 5873 5873 5873 5873 5873 5873 5872
5879 5881 5881 5886 5891 5897 5897 5895 5892 5890 5888 5889 5889 5886 5886 5886 5885 5884 5884 5883 5883 5883 5881 5881 5880 5879 5878 5878 5877 5876 5876 5875 5874 5873 5872 5872 5871 5871 5870 5870 5870 5869 5870 5870 5870 5870 5869 5869 5869
5878 5883 5883 5887 5894 5896 5896 5895 5893 5890 5889 5888 5888 5886 5886 5885 5884 5883 5882 5882 5881 5881 5881 5880 5879 5878 5877 5876 5875 5875 5874 5873 5872 5871 5870 5869 5868 5868 5867 5866 5866 5866 5866 5866 5866 5866 5866 5865 5865
5878 5881 5883 5886 5893 5893 5894 5895 5893 5892 5889 5888 5887 5885 5884 5883 5883 5882 5881 5880 5879 5878 5878 5878 5878 5877 5876 5875 5874 5873 5872 5870 5869 5868 5867 5866 5865 5865 5864 5863 5863 5862 5862 5862 5861 5862 5861 5861 5861
5877 5879 5879 5884 5888 5890 5891 5893 5892 5891 5891 5889 5885 5882 5882 5882 5881 5880 5879 5878 5877 5877 5876 5875 5875 5875 5874 5873 5872 5871 5870 5868 5867 5866 5864 5863 5862 5861 5861 5860 5859 5858 5858 5858 5857 5857 5857 5856 5856
5875 5876 5877 5880 5884 5886 5887 5889 5890 5890 5891 5887 5881 5873 5877 5881 5879 5878 5877 5876 5876 5875 5874 5874 5873 5872 5871 5871 5870 5869 5868 5866 5865 5863 5862 5860 5859 5858 5857 5857 5856 5855 5855 5854 5854 5853 5853 5852 5850
5872 5874 5875 5878 5880 5882 5884 5885 5888 5888 5888 5884 5879 5872 5874 5877 5877 5876 5874 5874 5873 5873 5872 5872 5871 5870 5869 5868 5867 5866 5865 5864 5863 5861 5859 5858 5857 5855 5854 5853 5852 5852 5851 5851 5850 5849 5848 5847 5846
5869 5870 5872 5874 5876 5878 5880 5881 5884 5886 5885 5882 5879 5874 5869 5874 5876 5875 5872 5871 5871 5871 5870 5869 5869 5868 5867 5866 5865 5864 5863 5862 5861 5859 5857 5855 5855 5853 5852 5851 5849 5848 5848 5847 5846 5845 5844 5842 5841
5864 5866 5868 5870 5872 5874 5876 5877 5879 5883 5884 5882 5879 5877 5872 5873 5874 5873 5871 5869 5867 5868 5867 5866 5866 5865 5864 5863 5862 5861 5860 5859 5858 5857 5855 5853 5852 5850 5849 5848 5847 5845 5844 5843 5841 5840 5839 5837 5835
5858 5861 5863 5866 5868 5870 5873 5873 5877 5880 5880 5879 5878 5877 5876 5874 5871 5870 5868 5866 5864 5864 5864 5863 5863 5863 5861 5860 5859 5858 5857 5856 5855 5854 5852 5850 5848 5846 5845 5844 5842 5840 5839 5838 5836 5834 5832 5830 5827
5853 5855 5858 5862 5863 5865 5867 5868 5873 5876 5875 5873 5873 5874 5874 5872 5869 5865 5861 5860 5861 5860 5860 5859 5858 5860 5858 5857 5855 5854 5853 5852 5851 5849 5847 5845 5843 5841 5839 5838 5836 5833 5832 5831 5828 5826 5824 5821 5818
5849 5851 5854 5856 5860 5863 5863 5864 5867 5870 5869 5867 5868 5869 5870 5869 5866 5862 5856 5853 5853 5855 5855 5854 5853 5855 5853 5852 5850 5849 5847 5846 5845 5844 5842 5840 5837 5835 5833 5832 5828 5826 5824 5822 5820 5817 5814 5811 5807
5843 5846 5852 5856 5859 5861 5860 5860 5861 5864 5864 5863 5864 5864 5865 5865 5862 5857 5852 5846 5844 5846 5849 5850 5848 5848 5848 5846 5844 5843 5841 5840 5839 5837 5834 5832 5830 5827 5825 5824 5822 5818 5815 5812 5810 5807 5804 5800 5795
5838 5840 5844 5849 5853 5855 5855 5854 5853 5855 5857 5857 5855 5856 5858 5859 5857 5854 5847 5843 5841 5840 5843 5844 5842 5841 5840 5839 5838 5836 5834 5832 5831 5828 5826 5823 5821 5819 5817 5815 5813 5810 5806 5803 5800 5796 5793 5788 5783
5833 5836 5839 5842 5844 5846 5847 5846 5846 5846 5849 5850 5849 5848 5848 5850 5850 5847 5842 5838 5837 5835 5836 5836 5834 5834 5832 5831 5830 5828 5826 5824 5822 5820 5817 5815 5812 5810 5808 5806 5803 5800 5796 5793 5788 5784 5780 5775 5770
5828 5830 5832 5833 5835 5837 5840 5839 5841 5840 5840 5840 5841 5841 5840 5840 5841 5838 5835 5831 5830 5829 5829 5828 5827 5826 5824 5822 5821 5819 5816 5815 5813 5811 5809 5806 5803 5800 5798 5796 5793 5789 5784 5781 5776 5771 5766 5761 5756
5822 5825 5826 5828 5828 5829 5830 5830 5831 5835 5835 5835 5835 5834 5833 5831 5831 5828 5826 5825 5824 5823 5821 5820 5819 5817 5816 5814 5812 5810 5807 5806 5803 5802 5799 5796 5794 5791 5788 5786 5782 5777 5773 5768 5763 5758 5752 5747 5742
5817 5819 5820 5820 5822 5822 5824 5824 5823 5827 5828 5830 5830 5828 5824 5821 5820 5819 5818 5818 5818 5816 5814 5812 5811 5809 5808 5806 5804 5802 5799 5797 5795 5792 5789 5786 5784 5782 5779 5775 5770 5765 5761 5756 5750 5745 5739 5733 5728
5813 5814 5815 5816 5816 5817 5819 5818 5819 5820 5821 5823 5822 5819 5815 5813 5812 5810 5810 5810 5810 5808 5806 5804 5803 5801 5800 5798 5796 5794 5791 5788 5786 5783 5780 5776 5773 5771 5769 5763 5759 5754 5748 5742 5737 5731 5725 5719 5713
5808 5809 5811 5813 5814 5816 5818 5816 5816 5813 5812 5813 5813 5811 5808 5805 5804 5803 5803 5802 5801 5799 5798 5796 5795 5793 5791 5789 5787 5785 5782 5779 5777 5773 5771 5767 5763 5760 5756 5751 5746 5740 5735 5729 5723 5716 5711 5705 5699
5802 5804 5807 5807 5807 5807 5808 5810 5811 5810 5807 5805 5804 5803 5801 5796 5795 5795 5794 5793 5791 5790 5789 5787 5786 5784 5783 5781 5778 5776 5773 5770 5767 5763 5761 5758 5753 5748 5744 5739 5733 5727 5721 5715 5708 5702 5696 5690 5684
5796 5799 5801 5801 5802 5801 5802 5804 5805 5801 5799 5798 5795 5793 5789 5786 5786 5786 5785 5784 5782 5781 5780 5779 5777 5775 5773 5771 5769 5766 5763 5760 5757 5754 5750 5746 5742 5737 5731 5726 5720 5714 5708 5702 5695 5689 5682 5676 5670
5793 5793 5793 5795 5797 5797 5797 5800 5795 5792 5791 5790 5789 5786 5781 5779 5779 5778 5776 5775 5774 5773 5772 5770 5769 5766 5764 5762 5759 5756 5753 5749 5746 5743 5739 5734 5729 5724 5718 5712 5706 5701 5695 5688 5682 5675 5668 5662 5655
5787 5787 5789 5788 5788 5788 5789 5793 5788 5785 5783 5782 5780 5776 5771 5769 5770 5769 5768 5767 5766 5765 5763 5762 5760 5757 5755 5752 5749 5746 5742 5738 5734 5731 5726 5722 5716 5710 5704 5698 5692 5686 5681 5674 5667 5660 5654 5647 5639
Wind_Speed
20 17 14 10 7 5 7 3 13 17 16 13 13 17 18 15 15 15 15 15 12 13 11 11 11 10 10 10 10 11 12 13 14 15 16 16 16 16 15 15 15 15 15 16 16 16 17 17 18
21 18 15 11 9 5 3 7 21 19 14 12 12 13 14 11 13 13 13 12 9 8 7 7 7 7 7 7 8 9 9 11 12 14 15 15 16 16 16 16 16 16 17 17 17 17 18 18 18
17 15 13 12 10 3 2 12 20 16 10 13 15 13 11 11 11 11 10 9 6 5 6 6 6 6 6 7 8 9 9 10 12 13 14 14 14 14 14 13 13 13 14 15 16 16 17 18 19
12 12 12 12 9 1 5 10 13 14 11 13 15 14 10 10 9 8 7 6 5 5 6 6 7 7 7 8 9 9 10 10 11 11 12 11 11 11 10 10 10 11 12 13 13 14 16 17 18
11 12 16 15 9 3 9 7 8 13 11 10 12 13 10 9 7 6 5 4 3 4 5 6 6 7 8 9 10 10 10 10 10 11 11 11 11 11 11 11 11 12 13 13 14 14 15 16 17
14 17 17 12 5 6 10 11 10 10 8 8 9 13 10 9 7 5 4 3 3 3 4 5 6 7 8 9 9 9 10 11 12 12 13 13 14 14 14 14 15 15 15 16 16 16 17 17 18
16 20 18 9 7 9 10 10 10 10 7 4 7 14 11 10 8 7 5 5 4 4 5 6 7 7 8 9 10 10 11 12 13 14 15 16 16 16 17 17 18 18 18 18 18 18 18 19 19
15 16 18 10 7 10 11 9 10 9 9 7 5 15 13 12 11 10 9 8 6 5 6 7 7 8 8 9 10 11 13 14 15 16 17 17 18 18 18 18 18 19 19 19 19 19 18 19 19
14 14 15 11 4 11 11 10 9 10 10 6 7 15 13 13 14 13 12 11 10 8 7 8 9 9 10 11 12 13 14 15 16 17 18 18 18 17 17 17 17 17 17 17 18 18 17 18 18
13 16 12 7 8 12 10 11 10 10 10 7 9 13 10 12 14 15 14 13 12 11 10 10 10 11 12 13 13 14 15 16 16 17 18 18 17 16 16 16 16 16 15 16 16 16 16 16 17
13 16 14 9 15 16 13 12 14 11 13 14 15 14 12 13 15 17 16 15 14 13 13 12 13 13 13 14 15 16 16 17 16 17 17 17 16 15 15 15 15 14 14 15 15 15 16 17 17
15 18 16 13 17 22 19 13 15 14 14 20 22 18 10 16 16 18 19 18 17 16 15 15 15 16 16 16 17 17 16 16 16 16 16 16 15 15 14 13 14 14 14 15 16 17 17 18 20
17 19 19 17 18 19 20 17 16 16 19 22 23 20 15 17 19 18 20 21 20 19 18 17 17 17 17 17 18 18 17 17 16 16 15 15 15 15 15 15 16 16 16 16 17 18 18 19 21
20 20 22 21 20 19 19 18 18 17 19 23 23 21 18 20 21 21 20 22 21 20 20 20 19 18 18 19 19 20 19 18 18 17 17 17 16 16 16 16 18 18 19 19 20 20 22 23 25
24 24 25 23 21 20 19 20 17 15 19 24 24 20 21 27 25 23 23 24 22 21 21 22 21 20 20 20 21 22 21 21 20 19 19 19 18 18 18 18 19 21 22 23 25 26 28 30 31
28 28 27 23 23 20 21 22 15 15 21 26 26 22 24 29 30 28 28 26 25 23 22 23 23 22 22 22 24 25 25 24 24 23 22 22 21 21 22 22 23 25 26 27 30 31 33 35 37
29 28 26 24 22 20 22 23 16 16 26 31 30 25 26 29 30 32 33 30 27 25 24 24 26 24 26 26 28 29 29 29 28 28 27 27 26 26 26 26 28 30 31 32 34 36 38 40 42
25 24 23 22 18 21 25 27 23 18 26 31 30 28 28 30 32 33 37 38 30 25 24 25 29 27 29 31 33 34 34 35 34 34 33 32 31 31 30 30 32 34 35 37 39 41 43 45 47
23 21 19 20 18 22 30 33 32 25 28 32 33 32 31 31 33 36 40 40 34 28 27 28 31 31 33 35 37 38 39 40 40 41 39 36 36 34 34 33 35 37 40 41 42 45 47 49 51
23 26 26 25 24 26 30 34 34 33 32 31 35 37 36 33 34 38 43 46 43 38 33 32 34 35 37 39 40 42 43 44 44 45 42 40 39 37 36 37 37 39 42 43 45 48 50 53 55
24 26 28 29 29 31 32 34 37 41 38 35 37 41 41 39 38 41 45 48 46 40 37 35 36 38 40 42 43 45 47 47 47 46 44 44 42 39 37 37 39 42 46 47 49 50 52 54 56
24 24 26 28 30 32 32 35 36 36 34 30 31 36 39 40 39 40 45 48 46 43 40 38 38 40 42 43 45 47 48 48 48 47 46 46 43 39 38 39 42 45 48 49 51 52 53 55 56
21 20 21 23 27 31 33 37 36 31 29 30 30 32 36 40 38 38 41 44 44 42 40 39 39 41 43 45 46 47 49 48 48 47 47 47 45 43 43 43 45 47 49 50 51 53 55 55 57
18 19 21 23 24 28 26 29 32 29 28 29 28 28 34 35 35 37 37 37 38 39 39 39 40 42 44 46 46 47 48 48 48 49 49 48 47 45 45 45 47 48 50 51 52 54 56 57 59
19 18 18 18 20 20 17 21 23 20 21 24 26 29 33 35 37 38 38 36 36 37 38 39 41 43 45 46 47 47 48 49 49 49 48 48 48 48 47 48 49 52 52 53 55 57 59 60 61
20 20 19 18 18 18 16 17 16 17 20 23 28 32 36 40 40 40 39 37 35 36 37 39 40 43 45 46 47 48 48 48 48 48 47 47 49 49 49 51 53 54 55 56 58 59 60 60 60
22 22 20 21 22 24 23 23 22 20 22 25 27 29 30 32 31 30 32 33 34 35 37 38 39 40 42 43 44 46 46 46 46 47 47 48 50 51 52 55 57 57 57 58 59 60 60 60 60
23 21 21 24 25 27 25 22 20 22 22 23 26 26 28 29 27 28 29 31 33 35 35 36 36 38 39 40 42 43 44 44 45 45 47 49 51 54 56 58 58 58 58 58 60 60 60 61 63
22 23 23 25 25 25 24 20 21 24 24 24 22 22 29 32 33 34 32 30 32 33 34 35 36 38 40 41 43 44 46 46 47 48 50 52 54 56 58 59 59 59 59 60 61 62 62 63 65
25 25 24 26 27 27 28 26 26 30 29 29 31 36 41 41 37 34 31 30 31 33 34 36 38 40 41 43 44 46 47 48 49 50 53 55 57 57 58 59 59 60 62 62 62 62 63 64 66
Wind_Direction
221 222 221 214 198 152 72 41 249 256 255 264 274 276 274 277 280 279 278 281 279 274 274 269 264 262 264 266 267 262 257 255 254 253 253 254 254 254 255 256 257 259 260 260 261 261 261 261 261
221 224 221 212 193 142 36 234 248 267 269 288 289 276 282 288 287 283 279 279 273 274 282 280 278 280 282 283 279 273 267 262 258 257 256 257 256 257 257 258 260 262 263 263 263 264 264 263 261
219 218 210 194 173 133 189 222 251 272 285 293 296 294 303 299 292 283 275 269 264 276 288 290 291 296 299 296 290 284 276 269 264 261 261 261 261 260 260 261 262 262 262 263 263 264 265 264 262
207 197 177 168 132 23 251 217 253 278 286 297 302 312 320 313 299 284 272 264 267 284 291 294 297 299 298 294 290 283 277 271 268 265 263 261 260 260 262 263 264 265 266 266 266 265 265 265 265
181 170 156 140 108 156 260 250 260 282 296 313 308 317 328 328 320 303 285 276 287 305 310 313 313 310 303 296 290 281 273 269 268 267 265 265 264 265 265 266 267 269 271 271 270 269 269 270 270
162 155 143 121 113 213 241 245 250 266 287 322 315 315 331 329 326 320 316 321 340 339 335 334 329 323 316 309 299 284 277 274 273 274 272 272 272 272 272 272 271 272 272 272 272 271 272 274 276
165 157 141 144 171 216 234 243 247 243 239 254 301 309 323 319 321 320 323 325 334 343 342 345 342 336 326 317 309 297 290 286 284 284 282 280 278 277 277 276 274 272 272 271 270 269 270 273 276
171 168 142 141 163 211 236 242 248 253 236 219 264 295 312 318 322 326 328 327 327 332 336 340 340 333 325 318 310 302 296 293 291 289 287 284 282 281 279 277 274 272 272 272 270 269 271 272 276
169 169 135 120 195 228 226 236 242 262 268 262 283 289 311 317 323 327 330 329 328 326 326 331 328 327 321 315 310 304 300 297 293 290 288 286 285 283 280 277 275 273 272 270 268 268 269 271 275
173 164 141 127 205 227 221 235 242 263 277 272 280 292 315 320 326 328 332 333 330 328 326 325 322 320 318 315 312 307 303 300 297 294 291 289 288 283 280 279 276 274 272 270 270 271 273 275 278
185 180 169 185 209 212 208 225 239 244 274 275 253 261 301 325 330 331 332 334 333 331 328 328 325 319 315 313 312 309 307 305 302 300 298 295 293 290 286 283 281 278 277 278 281 283 284 285 284
203 199 199 204 216 221 214 210 246 242 260 270 268 247 272 314 324 330 330 330 333 332 330 329 327 323 316 311 310 309 307 306 306 305 305 305 305 303 299 296 291 290 288 288 289 290 291 290 291
219 219 222 223 222 224 219 212 227 246 253 266 277 282 290 307 314 318 322 325 328 329 327 327 325 321 318 311 310 308 307 307 308 309 310 311 312 310 308 308 303 301 298 295 292 294 295 294 295
228 230 233 235 236 234 234 230 225 231 253 263 275 280 276 297 307 306 309 315 320 322 321 321 321 318 315 311 307 306 305 305 307 307 306 307 310 309 308 306 303 301 298 297 295 294 294 294 295
232 235 240 240 242 242 244 246 238 235 244 257 266 272 282 292 297 300 301 305 310 314 314 313 314 312 309 307 304 302 302 302 303 302 301 301 301 300 300 299 298 296 296 296 295 294 295 294 293
239 242 245 248 250 248 247 251 245 248 250 251 257 261 269 283 291 293 294 300 304 306 308 304 304 305 302 301 299 299 299 297 297 297 295 294 294 294 294 295 294 293 293 294 293 294 295 294 294
241 246 251 251 254 259 256 256 233 234 250 247 249 254 266 279 286 287 285 289 298 300 302 298 296 297 295 296 296 296 296 294 293 292 289 288 288 288 289 292 293 293 294 294 295 295 294 294 293
245 252 259 262 254 254 253 256 254 233 247 250 253 255 263 274 280 281 283 284 287 293 295 292 290 290 289 290 292 293 293 294 292 292 288 285 284 284 285 290 293 294 294 295 296 296 295 294 293
233 230 239 257 261 245 250 253 257 244 251 257 256 258 261 267 273 277 278 279 280 289 295 291 286 285 284 285 287 289 291 292 293 293 291 282 281 279 282 287 289 292 294 295 297 296 295 294 292
238 231 228 229 229 233 242 252 256 251 240 253 264 264 263 261 265 272 276 277 284 289 292 287 282 281 280 281 283 285 288 289 291 293 293 290 285 279 281 286 290 293 294 295 296 295 295 293 292
240 241 236 235 235 232 237 246 254 261 260 255 257 264 269 268 265 266 270 275 283 286 288 285 280 278 279 281 282 283 284 286 289 292 295 296 293 287 286 288 292 294 295 296 296 296 295 294 293
244 248 247 242 242 241 241 253 257 268 277 275 266 265 266 270 273 269 267 272 279 282 283 282 279 279 280 281 281 281 281 284 288 292 297 299 298 294 293 294 296 296 296 297 296 297 296 295 295
244 245 247 251 254 255 250 253 257 260 264 267 269 269 263 266 273 273 268 269 273 277 278 278 278 279 280 281 281 281 283 284 289 293 296 299 299 299 299 297 297 296 297 298 297 298 297 296 295
246 248 251 252 256 262 269 270 272 267 262 265 270 265 259 263 268 269 269 268 269 271 273 276 277 279 280 281 282 283 285 288 291 293 296 296 296 297 299 298 297 297 299 299 298 297 296 295 294
253 256 260 266 271 282 295 286 289 286 267 254 254 252 255 260 262 264 267 268 266 267 270 273 276 279 280 282 284 285 287 289 291 293 294 293 294 296 297 297 298 299 299 299 298 297 296 294 294
250 260 260 256 257 265 266 274 279 272 257 246 244 249 256 264 267 267 266 267 265 266 269 271 274 277 279 282 283 284 286 288 289 289 290 291 292 295 296 298 300 301 300 299 298 297 296 296 296
240 244 260 267 268 266 261 256 257 272 280 275 266 262 263 266 269 270 268 266 264 266 268 271 274 276 278 279 281 283 284 285 286 287 288 290 292 293 296 298 300 300 299 299 298 298 298 297 298
256 247 243 250 260 266 269 271 274 264 257 255 255 255 257 260 268 273 270 265 265 267 270 273 276 277 278 280 281 282 282 284 285 287 289 290 291 294 297 298 298 298 297 298 299 299 298 298 299
252 259 254 248 248 258 268 269 273 272 261 254 259 263 266 268 275 279 272 268 268 269 271 273 275 277 279 281 282 282 284 285 287 289 290 292 293 295 296 296 296 296 296 297 298 298 298 299 301
251 249 251 257 259 256 258 261 264 268 266 265 264 263 265 266 269 271 273 271 270 270 272 274 277 279 282 284 285 287 288 289 290 291 292 293 294 295 294 295 295 296 297 297 298 298 299 301 302